Time,TemperatureF,DewpointF,PressureIn,WindDirection,WindDirectionDegrees,WindSpeedMPH,WindSpeedGustMPH,Humidity,HourlyPrecipIn,Conditions,Clouds,dailyrainin,SoftwareType,DateUTC
2015-01-29 00:11:00,39.0,33.0,-100.00,East,95,1.0,2.0,81,-99.99,,,-99.99,,2015-01-29 08:11:00,
2015-01-29 00:22:00,38.0,33.0,-100.00,North,-999,0.0,2.0,81,-99.99,,,-99.99,,2015-01-29 08:22:00,
2015-01-29 00:42:00,38.0,33.0,-100.00,North,-999,0.0,2.0,81,-99.99,,,-99.99,,2015-01-29 08:42:00,
2015-01-29 00:52:00,37.0,32.0,-100.00,East,80,1.0,2.0,82,-99.99,,,-99.99,,2015-01-29 08:52:00,
2015-01-29 01:11:00,37.0,33.0,-100.00,East,100,1.0,2.0,83,-99.99,,,-99.99,,2015-01-29 09:11:00,
2015-01-29 01:22:00,37.0,33.0,-100.00,North,-999,0.0,1.0,83,-99.99,,,-99.99,,2015-01-29 09:22:00,
2015-01-29 01:43:00,37.0,33.0,-100.00,North,-999,0.0,1.0,84,-99.99,,,-99.99,,2015-01-29 09:43:00,
2015-01-29 01:54:00,37.0,32.0,-100.00,East,90,1.0,2.0,84,-99.99,,,-99.99,,2015-01-29 09:54:00,
2015-01-29 02:13:00,37.0,33.0,-100.00,North,-999,0.0,1.0,85,-99.99,,,-99.99,,2015-01-29 10:13:00,
2015-01-29 02:43:00,37.0,33.0,-100.00,North,-999,0.0,0.0,86,-99.99,,,-99.99,,2015-01-29 10:43:00,
2015-01-29 02:53:00,37.0,33.0,-100.00,East,80,1.0,1.0,85,-99.99,,,-99.99,,2015-01-29 10:53:00,
2015-01-29 03:13:00,38.0,34.0,-100.00,East,85,1.0,2.0,85,-99.99,,,-99.99,,2015-01-29 11:13:00,
2015-01-29 03:22:00,38.0,33.0,-100.00,East,80,1.0,1.0,83,-99.99,,,-99.99,,2015-01-29 11:22:00,
2015-01-29 03:43:00,37.0,32.0,-100.00,East,80,1.0,2.0,82,-99.99,,,-99.99,,2015-01-29 11:43:00,
2015-01-29 03:53:00,36.0,32.0,-100.00,ENE,75,1.0,1.0,83,-99.99,,,-99.99,,2015-01-29 11:53:00,
2015-01-29 04:12:00,36.0,32.0,-100.00,ENE,65,1.0,1.0,84,-99.99,,,-99.99,,2015-01-29 12:12:00,
2015-01-29 04:22:00,36.0,31.0,-100.00,North,-999,0.0,2.0,84,-99.99,,,-99.99,,2015-01-29 12:22:00,
2015-01-29 04:42:00,35.0,31.0,-100.00,North,-999,0.0,2.0,85,-99.99,,,-99.99,,2015-01-29 12:42:00,
2015-01-29 04:52:00,34.0,31.0,-100.00,ENE,60,1.0,1.0,86,-99.99,,,-99.99,,2015-01-29 12:52:00,
2015-01-29 05:12:00,35.0,31.0,-100.00,East,90,2.0,2.0,87,-99.99,,,-99.99,,2015-01-29 13:12:00,
2015-01-29 05:22:00,35.0,31.0,-100.00,East,100,1.0,2.0,86,-99.99,,,-99.99,,2015-01-29 13:22:00,
2015-01-29 05:42:00,34.0,30.0,-100.00,North,-999,0.0,2.0,86,-99.99,,,-99.99,,2015-01-29 13:42:00,
2015-01-29 05:53:00,34.0,30.0,-100.00,NE,50,1.0,2.0,87,-99.99,,,-99.99,,2015-01-29 13:53:00,
2015-01-29 06:11:00,34.0,30.0,-100.00,ENE,70,1.0,1.0,88,-99.99,,,-99.99,,2015-01-29 14:11:00,
2015-01-29 06:22:00,34.0,30.0,-100.00,South,185,1.0,4.0,88,-99.99,,,-99.99,,2015-01-29 14:22:00,
2015-01-29 06:42:00,33.0,30.0,-100.00,NE,55,1.0,1.0,88,-99.99,,,-99.99,,2015-01-29 14:42:00,
2015-01-29 06:52:00,34.0,31.0,-100.00,East,90,1.0,1.0,89,-99.99,,,-99.99,,2015-01-29 14:52:00,
2015-01-29 07:12:00,34.0,31.0,-100.00,SSE,150,1.0,2.0,89,-99.99,,,-99.99,,2015-01-29 15:12:00,
2015-01-29 07:22:00,33.0,30.0,-100.00,North,-999,0.0,2.0,88,-99.99,,,-99.99,,2015-01-29 15:22:00,
2015-01-29 07:44:00,34.0,31.0,-100.00,ENE,75,1.0,2.0,89,-99.99,,,-99.99,,2015-01-29 15:44:00,
2015-01-29 07:54:00,34.0,31.0,-100.00,North,-999,0.0,1.0,89,-99.99,,,-99.99,,2015-01-29 15:54:00,
2015-01-29 08:03:00,34.0,31.0,-100.00,North,-999,0.0,1.0,89,-99.99,,,-99.99,,2015-01-29 16:03:00,
2015-01-29 08:24:00,35.0,32.0,-100.00,South,180,1.0,2.0,90,-99.99,,,-99.99,,2015-01-29 16:24:00,
2015-01-29 08:44:00,35.0,33.0,-100.00,North,-999,0.0,1.0,90,-99.99,,,-99.99,,2015-01-29 16:44:00,
2015-01-29 08:54:00,37.0,34.0,-100.00,North,-999,0.0,1.0,89,-99.99,,,-99.99,,2015-01-29 16:54:00,
2015-01-29 09:13:00,38.0,34.0,-100.00,SE,135,1.0,2.0,85,-99.99,,,-99.99,,2015-01-29 17:13:00,
2015-01-29 09:22:00,40.0,34.0,-100.00,NE,40,1.0,2.0,81,-99.99,,,-99.99,,2015-01-29 17:22:00,
2015-01-29 09:43:00,42.0,35.0,-100.00,South,185,1.0,2.0,77,-99.99,,,-99.99,,2015-01-29 17:43:00,
2015-01-29 10:13:00,45.0,33.0,-100.00,NW,310,1.0,3.0,62,-99.99,,,-99.99,,2015-01-29 18:13:00,
2015-01-29 10:22:00,46.0,33.0,-100.00,West,280,1.0,2.0,59,-99.99,,,-99.99,,2015-01-29 18:22:00,
2015-01-29 10:43:00,47.0,34.0,-100.00,North,-999,0.0,2.0,59,-99.99,,,-99.99,,2015-01-29 18:43:00,
2015-01-29 10:53:00,49.0,33.0,-100.00,WNW,285,1.0,3.0,53,-99.99,,,-99.99,,2015-01-29 18:53:00,
2015-01-29 11:12:00,51.0,33.0,-100.00,WSW,245,1.0,2.0,49,-99.99,,,-99.99,,2015-01-29 19:12:00,
2015-01-29 11:23:00,53.0,31.0,-100.00,WSW,245,1.0,2.0,43,-99.99,,,-99.99,,2015-01-29 19:23:00,
2015-01-29 11:42:00,53.0,31.0,-100.00,WSW,255,1.0,3.0,43,-99.99,,,-99.99,,2015-01-29 19:42:00,
2015-01-29 11:52:00,53.0,30.0,-100.00,SSW,205,1.0,4.0,42,-99.99,,,-99.99,,2015-01-29 19:52:00,
2015-01-29 12:12:00,53.0,31.0,-100.00,South,185,4.0,6.0,44,-99.99,,,-99.99,,2015-01-29 20:12:00,
2015-01-29 12:22:00,52.0,32.0,-100.00,South,180,4.0,7.0,46,-99.99,,,-99.99,,2015-01-29 20:22:00,
2015-01-29 12:42:00,53.0,32.0,-100.00,South,175,3.0,7.0,45,-99.99,,,-99.99,,2015-01-29 20:42:00,
2015-01-29 12:52:00,54.0,30.0,-100.00,South,190,4.0,6.0,40,-99.99,,,-99.99,,2015-01-29 20:52:00,
2015-01-29 13:12:00,55.0,31.0,-100.00,South,180,1.0,6.0,39,-99.99,,,-99.99,,2015-01-29 21:12:00,
2015-01-29 13:22:00,56.0,31.0,-100.00,South,190,2.0,7.0,38,-99.99,,,-99.99,,2015-01-29 21:22:00,
2015-01-29 13:44:00,59.0,31.0,-100.00,NW,310,1.0,4.0,35,-99.99,,,-99.99,,2015-01-29 21:44:00,
2015-01-29 13:54:00,59.0,31.0,-100.00,NW,315,1.0,6.0,35,-99.99,,,-99.99,,2015-01-29 21:54:00,
2015-01-29 14:12:00,60.0,31.0,-100.00,South,190,1.0,6.0,34,-99.99,,,-99.99,,2015-01-29 22:12:00,
2015-01-29 14:24:00,60.0,31.0,-100.00,South,190,1.0,6.0,34,-99.99,,,-99.99,,2015-01-29 22:24:00,
2015-01-29 14:43:00,60.0,31.0,-100.00,NW,310,2.0,6.0,33,-99.99,,,-99.99,,2015-01-29 22:43:00,
2015-01-29 14:54:00,60.0,31.0,-100.00,South,180,4.0,8.0,34,-99.99,,,-99.99,,2015-01-29 22:54:00,
2015-01-29 15:12:00,59.0,32.0,-100.00,South,185,5.0,7.0,35,-99.99,,,-99.99,,2015-01-29 23:12:00,
2015-01-29 15:22:00,59.0,32.0,-100.00,South,180,4.0,7.0,35,-99.99,,,-99.99,,2015-01-29 23:22:00,